DELTA 1 DEB, 10261

Orbit data source: Space-Track

DELTA 1 DEB, 10261 is space debris in LEO originally from a launch on Thu, 14 Jul 1977 UTC launched from the Air Force Eastern Test Range (AFETR). Debris objects in space refer to the collection of defunct objects orbiting the Earth. Examples of debris include non-operational satellites, rocket bodies, and fragments generated from explosions, collisions, or faulty payload assembly.

Not visible in the next 10 days
Identifier
10261, 1977-065CN
Orbit
LEO
Country
Flag of USUS
Related business
Manufacturer
Unknown
Mission
Spacecraft
Bus & Motor
Unknown
Mass
Unknown
Launch date (UTC)
1977-07-14 (48 years ago)
Launch vehicle
Unknown
Launch site
Air Force Eastern Test Range (AFETR)
Object type
Payload
Rocket body
Debris
Shape & HBR
Unknown shape, 0.1 m
Radar Cross Section
Small (<0.1 m²)

Expand to show TLE details & history
Last TLE update: 23 hours ago

TLE from 23 hours ago
0 DELTA 1 DEB
1 10261U 77065CN  25303.64203033  .00114201  00000-0  29878-2 0  9994
2 10261  28.9947  57.0543 0108659 139.0260 221.8570 15.31380367457070
Epoch: 2025-10-30T15:24Z
TLE epoch observation values (Epoch: 2025-10-30T15:24:31.420Z)
Latitude
-0.00001°
Longitude
146.72548°
Altitude
525.769 km
Speed
7.572 km/s
True Right ascension
03h 48m 13s
True Declination
0° 00' 00"
Sunlit
Object was in full shadow at epoch
Visualization orbit readout
Latitude
Unknown
Longitude
Unknown
Altitude
Unknown
Speed
Unknown
Apparent Right ascension
Unknown
Apparent Declination
Unknown
Sunlit
N/A
Visualization observer readout
Local Sidereal Time
10:25:33
Azimuth
Unknown
Elevation
Unknown
Doppler factor
Unknown
Orbital elements
Apogee altitude
550.338 km
Perigee altitude
401.388 km
Semi-major axis
6,854 km
Eccentricity
0.01087
Inclination
28.9947°
RAAN
57.0543°
Arg. of periapsis
139.026°
True anomaly
221.0345°
Mean anomaly
221.857°
Eccentric anomaly
221.44492°
Mean motion
3.82496 °/min
Orbital period
94.12 mins
BSTAR
0.0029878
Loading maneuver chart data...
Computing Atmospheric mass density...
Loading historical data...
Loading historical data...
Loading historical data...
Loading historical data...
Loading historical data...
Loading historical data...
Loading historical data...

Documentation

Showing up to 5 results
|